www.pogodaiklimat.ru

Погода и климат >> Архив погоды >> Филиппины >> Давао


ПОГОДА в Давао

  • Прогноз погоды в Давао
  • Монитор погоды в Давао

АРХИВ ПОГОДЫ в Давао

Время (UTC), дата Ветер
(напр.,м/с)
 
Видим.   Явления Облачность Т
(С)
Тd
(С)
f
(%)
Тe
(С)
Тes
(С)
Комфортность P
(гПа)
Po
(гПа)
Тmin
(С)
Tmax
(С)
R
(мм)
R24
(мм)
S
(см)
15 18.06 С 1 15 км мгла {туман} 8/3 480 м
[Cu med, cong Ac trans Ci fib]
+28.0 +25.6 87 +41 +41 опасность
перегрева
1010.6 1008.5
18 18.06 ЮЗ 1 8000 м слаб. дождь {туман} 8/4 480 м
[Cu med, cong Ac As Ci fib]
+27.2 +24.8 87 +39 +39 очень
душно
1009.5 1007.4 0.0
21 18.06 С 1 12 км {дождь} 8/3 480 м
[Cu med, cong Ac As Ci sp]
+26.2 +24.7 91 +37 +37 очень
душно
1009.8 1007.7 3
00 19.06 С 1 15 км мгла {дождь, туман} 4/4 480 м
[Cu hum Ci fib]
+27.1 +24.6 86 +38 +44 очень
душно
1010.4 1008.3 +26.2 4
03 19.06 СВ 2 15 км мгла {туман} 3/3 480 м
[Cu hum]
+31.6 +24.5 66 +44 +58 опасность
перегрева
1009.5 1009.4
06 19.06 ЮВ 3 15 км мгла {туман} 5/3 480 м
[Cu med, cong Ac trans Ci fib]
+34.0 +24.6 58 +47 +54 опасность
перегрева
1006.8 1004.7
09 19.06 СВ 1 15 км мгла {туман} 9/4 450 м
[Cb cap Ac As Cs]
+29.9 +23.6 69 +41 +41 опасность
перегрева
1007.1 1005.0
12 19.06 ЮВ 1 15 км мгла {туман} 8/3 480 м
[Cu med, cong Ac trans Ci fib]
+28.4 +24.7 80 +40 +40 очень
душно
1008.8 1006.7 +34.0
15 19.06 штиль 0 15 км мгла {туман} 9/4 480 м
[Cu med, cong Ac trans Ci fib]
+28.2 +25.0 83 +41 +41 опасность
перегрева
1009.2 1007.1
18 19.06 С 1 12 км мгла {туман} 8/3 480 м
[Cu med, cong Ac trans Ci fib]
+27.6 +25.2 87 +40 +40 очень
душно
1008.4 1006.3
21 19.06 С 1 12 км мгла {туман} 6/3 480 м
[Cu med, cong Ci fib]
+26.4 +24.4 89 +37 +37 очень
душно
1008.9 1006.8
00 20.06 В 1 15 км мгла {туман} 9/1 480 м
[Cu med, cong Cs]
+28.7 +25.3 82 +42 +48 опасность
перегрева
1010.1 1008.0 +26.4
03 20.06 ЮВ 1 15 км мгла {туман} 9/3 480 м
[Cu med, cong Cs]
+32.5 +25.6 67 +47 +61 опасность
перегрева
1009.2 1007.1
06 20.06 Ю 3 15 км мгла {туман} 6/4 450 м
[Cb cap Ci sp]
+33.0 +23.6 58 +44 +51 опасность
перегрева
1007.6 1005.5
09 20.06 Ю 3 15 км мгла {туман} 8/4 450 м
[Cb cap Ac As Ci sp]
+31.6 +24.5 66 +44 +44 опасность
перегрева
1007.6 1005.5
12 20.06 Ю 3 12 км зарница {туман} 8/4 450 м
[Cb cap Ac As Ci sp]
+29.1 +25.3 80 +42 +42 опасность
перегрева
1009.4 1007.3 +33.2
15 20.06 В 2 15 км в посл. час ливневой дождь 8/3 480 м
[Cu med, cong Ac As Cs]
+27.0 +24.5 86 +38 +38 очень
душно
1010.1 1008.0 3
18 20.06 штиль 0 15 км мгла {туман} 9/3 480 м
[Cu med, cong Ac As Cs]
+26.2 +24.3 89 +36 +36 очень
душно
1009.2 1007.1 3
21 20.06 С 2 15 км мгла {туман} 8/3 480 м
[Cu med, cong Ac trans Ci fib]
+26.0 +24.4 91 +36 +36 очень
душно
1009.0 1006.9
00 21.06 СВ 1 15 км мгла {туман} 8/3 480 м
[Cu med, cong Ac trans Ci sp]
+28.0 +24.8 83 +40 +44 очень
душно
1009.9 1007.8 +26.0 3
03 21.06 ЮВ 1 15 км мгла {туман} 9/3 480 м
[Cu med, cong Ac As Ci sp]
+31.3 +25.2 70 +45 +55 опасность
перегрева
1009.1 1007.0
06 21.06 З 2 12 км в посл. час гроза {туман} 9/5 450 м
[Cb cap Ac As Cs]
+32.0 +25.4 68 +46 +50 опасность
перегрева
1007.7 1005.6
09 21.06 Ю 3 15 км мгла {туман} 9/3 450 м
[Cb cap Ac trans Ci fib]
+30.2 +25.6 76 +44 +45 опасность
перегрева
1008.1 1006.0
12 21.06 Ю 1 15 км мгла {туман} 4/3 480 м
[Cu med, cong Ci fib]
+28.7 +26.0 85 +43 +43 опасность
перегрева
1010.0 1007.9 +32.0
15 21.06 штиль 0 15 км мгла {туман} 8/3 480 м
[Cu med, cong Ac trans Ci sp]
+27.3 +24.8 86 +39 +39 очень
душно
1009.9 1007.8
18 21.06 штиль 0 15 км мгла {туман} 8/3 480 м
[Cu med, cong Ac trans Ci sp]
+26.4 +23.7 85 +36 +36 очень
душно
1008.2 1006.1
21 21.06 штиль 0 15 км мгла {туман} 5/3 480 м
[Cu med, cong Ci fib]
+25.6 +23.4 88 +35 +35 очень
душно
1007.7 1005.6
00 22.06 С 2 15 км мгла {туман} 8/3 480 м
[Cu med, cong Ac trans Ci sp]
+27.0 +23.5 81 +37 +40 очень
душно
1009.3 1007.2 +25.4
03 22.06 В 1 15 км мгла {туман} 10/3 480 м
[Cu Sc Ac trans Cs]
+30.0 +24.5 72 +42 +50 опасность
перегрева
1009.0 1006.9
06 22.06 Ю 2 15 км мгла {туман} 9/4 480 м
[Cu Sc Ac trans Cs]
+33.0 +25.1 63 +47 +51 опасность
перегрева
1006.6 1004.5
09 22.06 ЮЗ 2 8000 м гроза, ливневой дождь {туман} 10/4 450 м
[Cb cap Ac As Cs]
+29.7 +25.8 80 +44 +45 опасность
перегрева
1007.9 1005.8 0.6
12 22.06 З 2 12 км в посл. час дождь {гроза, ливн. осадки} 10/3 480 м
[Cu med, cong Ac As Cs]
+27.4 +25.0 87 +39 +39 очень
душно
1008.8 1006.7 +33.0 4
15 22.06 штиль 0 15 км мгла {туман} 8/1 480 м
[Cu med, cong Ac trans Cs]
+26.5 +25.2 93 +38 +38 очень
душно
1008.6 1006.5
18 22.06 штиль 0 15 км мгла {туман} 8/1 480 м
[Cu med, cong Ac trans Cs]
+25.6 +24.5 94 +36 +36 очень
душно
1008.1 1006.0
21 22.06 С 1 15 км мгла {туман} 10/1 480 м
[Cu med, cong Ac trans Cs]
+25.4 +24.6 95 +36 +36 очень
душно
1008.0 1005.9
00 23.06 В 2 15 км мгла {туман} 9/3 480 м
[Cu med, cong Ac trans Cs]
+27.8 +25.0 85 +40 +43 очень
душно
1009.5 1007.4 +25.2 4
03 23.06 Ю 3 15 км мгла {туман} 8/3 450 м
[Cb cap Ac trans Ci sp]
+30.7 +24.9 71 +44 +51 опасность
перегрева
1009.1 1007.0
06 23.06 Ю 4 15 км мгла {туман} 6/3 450 м
[Cb cap Ac trans Ci sp]
+32.0 +24.8 66 +45 +50 опасность
перегрева
1006.9 1004.8
09 23.06 Ю 3 15 км мгла {туман} 9/4 450 м
[Cb cap Ac As Cs]
+30.6 +25.5 74 +45 +45 опасность
перегрева
1007.3 1005.2
12 23.06 В 2 4000 м гроза, ливневой дождь {туман} 10/4 450 м
[Cb cap As op]
+27.0 +24.5 86 +38 +38 очень
душно
1010.1 1008.0 +32.0 27
15 23.06 штиль 0 12 км {гроза, дождь} 10/4 480 м
[Cu med, cong Ac trans Cs]
+25.8 +24.7 94 +37 +37 очень
душно
1010.4 1008.3 2
18 23.06 штиль 0 15 км {гроза, дождь} 9/1 480 м
[Cu med, cong Ac trans Cs]
+25.3 +24.4 95 +35 +35 очень
душно
1010.4 1008.3 2
21 23.06 штиль 0 15 км 9/1 480 м
[Cu med, cong Ac trans Cs]
+25.0 +24.3 96 +35 +35 очень
душно
1010.4 1008.3
00 24.06 штиль 0 12 км мгла {туман} 8/3 480 м
[Cu med, cong Ac As Ci fib]
+27.8 +25.3 86 +40 +45 очень
душно
1011.9 1009.8 +25.0 29
03 24.06 Ю 3 15 км мгла {туман} 8/3 480 м
[Cu med, cong Ac trans Ci sp]
+30.0 +24.9 74 +43 +50 опасность
перегрева
1011.4 1009.3
06 24.06 Ю 3 15 км мгла {туман} 8/3 450 м
[Cb cap Ac trans Ci sp]
+32.7 +25.4 66 +47 +53 опасность
перегрева
1008.8 1006.7
09 24.06 Ю 3 12 км осадки на расстоянии {туман} 10/4 450 м
[Cb cap Ac trans Cs]
+30.4 +25.4 75 +45 +45 опасность
перегрева
1009.0 1006.9
12 24.06 СВ 4 12 км в посл. час гроза {ливн. осадки} 10/4 480 м
[Cu med, cong Ac As Cs]
+25.8 +24.3 91 +36 +36 очень
душно
1011.9 1009.8 +32.7 25
15 24.06 СЗ 1 15 км 6/1 480 м
[Cu med, cong Ac trans Ci fib]
+25.0 +23.8 93 +34 +34 очень
душно
1011.9 1009.8
18 24.06 В 1 15 км 6/1 480 м
[Cu med, cong Cs]
+24.9 +23.4 91 +33 +33 очень
душно
1010.3 1008.2
21 24.06 Ю 1 15 км 8/1 480 м
[Cu med, cong Cs]
+24.1 +23.4 96 +32 +32 очень
душно
1010.9 1008.8
00 25.06 штиль 0 15 км мгла 6/3 480 м
[Cu med, cong Ci fib]
+26.8 +25.2 91 +39 +45 очень
душно
1012.0 1009.9 +24.1 25
03 25.06 СВ 1 15 км мгла {туман} 8/4 480 м
[Cu med, cong Ci sp]
+32.0 +25.9 70 +47 +59 опасность
перегрева
1011.1 1009.0
06 25.06 В 2 15 км мгла {туман} 6/3 480 м
[Cu med, cong Ac trans Ci sp]
+33.5 +23.9 57 +45 +53 опасность
перегрева
1008.8 1006.7
09 25.06 Ю 3 15 км мгла {туман} 8/3 450 м
[Cb cap Ac trans Ci sp]
+32.0 +24.2 63 +44 +44 опасность
перегрева
1008.3 1006.2

 

Местоположение метеостанции Давао (Филиппины): широта 7.12 долгота 125.65 высота над уровнем моря 18 м.

В архиве по умолчанию представлена погода в Давао за последнюю неделю. Архивные данные за месяц целиком и за предыдущие месяцы, начиная с января 2011 года, Вы можете получить, выбрав интересующий диапазон дат из раскрывающегося списка и нажав кнопку "Ввод!".


*Определитесь, кто Вы:
робот инопланетянин человек

Внимание! Время в таблицах - всемирное. Для получения местного времени необходимо прибавить поправку, которая равна 8 ч.

Смотрите также архив погоды в соседних городах и на ближайших метеорологических станциях:

Погода в Генерал-Сантосе (Филиппины) (123 км)
Погода в Малайбалае (Филиппины) (131 км)
Погода в Котобато (Филиппины) (158 км)
Погода в Хинатуане (Филиппины) (158 км)
Погода в Бутуане (Филиппины) (202 км)
Погода в Кагаян-де-Оро (Филиппины) (210 км)
Погода в Серигао Сити (Филиппины) (299 км)
Погода в Дипологе (Филиппины) (302 км)
Погода в Тагбиларане (Филиппины) (340 км)
Погода в Маасине (Филиппины) (347 км)

Пояснения к столбцам:

Ветер - указаны скорость ветра в м/с - средняя за 10 мин, порывы в срок и между сроками (в фигурных скобках) и направление, откуда дует ветер: С - северный, СВ - северо-восточный, В - восточный, ЮВ - юго-восточный, Ю - южный, ЮЗ - юго-западный, З - западный, СЗ - северо-западный.
Видимость - горизонтальная дальность видимости в метрах или километрах. При видимости от 1 до 10 км при отсутствии осадков обычно наблюдается дымка, при ухудшении видимости до 1 км и менее - туман. В сухую погоду видимость может ухудшаться дымом, пылью или мглою.
Явления - указаны атмосферные явления, наблюдавшиеся в срок или в последний час перед сроком; фигурными скобками обозначены явления, наблюдавшиеся между сроками (за 1-3 часа до срока); квадратными скобками обозначены град или гололедные отложения с указанием их диаметра в мм.
Облачность - указаны через наклонную черту общая и нижняя облачность в баллах и высота нижней границы облаков в метрах; квадратными скобками обозначены формы облаков: Ci - перистые, Cs - перисто-слоистые, Cc - перисто-кучевые, Ac - высококучевые, As - высокослоистые, Sc - слоисто-кучевые, Ns - слоисто-дождевые, Cu - кучевые, Cb - кучево-дождевые. Подробнее классификацию облаков см. в Атласе облаков (PDF).
T - Температура воздуха - температура, измеренная на высоте 2 м над землей.
Td - Температура точки росы - температура, при понижении до которой содержащийся в воздухе водяной пар достигнет насыщения.
f - Относительная влажность воздуха - влажноcть воздуха, измеренная на высоте 2 м над землей.
Te - Эффективная температура - температура, которую ощущает одетый по сезону человек в тени. Характеристика душности погоды. При расчете учитывается влияние влажности воздуха и скорости ветра на теплоощущения человека.
Tes - Эффективная температура на солнце - температура, которую ощущает человек, с поправкой на солнечный нагрев. Характеристика знойности погоды. Зависит от высоты солнца над горизонтом, облачности и скорости ветра. Ночью, в пасмурную погоду, а также при ветре 12 м/с и более поправка равна нулю.
P - Атмосферное давление - приведенное к уровню моря атмосферное давление.
Po - Атмосферное давление - измеренное на уровне метеостанции атмосферное давление.
Tmin - Минимальная температура - минимум температуры воздуха на высоте 2 м над землей.
Tmax - Максимальная температура - максимум температуры воздуха на высоте 2 м над землей.
R - Количество осадков - Количество выпавших осадков за период времени, мм. При наведении курсора мыши на число - период времени, за который выпало указанное количество осадков.
R24 - Количество осадков - Количество выпавших осадков за 24 часа, мм.
S - Снежный покров - Высота снежного покрова, см. При наведении курсора мыши на число - состояние снежного покрова и степень покрытия местности в баллах.